sat.trackr.live / text

‹ back to catalog

CHUANGXIN-3 (CX-3)

NORAD 39209 · 2013-037B

PAYLOAD ACTIVE UNKNOWN

§ Identity

Operator
Country
PRC
Launch date
2013-07-19
Launch site
TAISC
Launch vehicle
Mass (kg)
RCS (m²)
1.34

External: N2YO · Heavens-Above · Gunter

§ Orbital elements

Epoch: 2026-09-18T23:17:05.890848Z

Period
97.64 min
Inclination
98.0854°
Eccentricity
0.0004008
Mean motion
14.74751537 rev/d
Perigee alt
643.1 km
Apogee alt
648.8 km
Semi-major
7,024.1 km
B*
9.4673e-5
RAAN
268.0383°
Arg perigee
173.7684°
Mean anomaly
186.3575°
Rev number
70,617

§ Raw data

CHUANGXIN-3 (CX-3)1 39209U 13037B   26261.97020707  .00000582  00000+0  94673-4 0  99932 39209  98.0854 268.0383 0004008 173.7684 186.3575 14.74751537706177

JSON: /api/v1/satellites/39209 · /tle

For live sub-satellite position, see the globe view (requires WebGL).

§ Visibility from observer

Set your observer location to see the next 7 days of passes ≥ 10°. The values pass through the URL so the page stays shareable.

No JS? Fill the form by hand. The geolocation button needs JavaScript.